Date String (YYYY-MM-DD hh:mm:ss) UTC,Instrument flags,absolute air pressure of the measurement (hPa),sample flow rate (lpm),inlet stack bypass flow (lpm),air temperature of the measurement (°C),ambient temperature measured by the external sensor (°C),aerosol sample conditioner tube jacket temperature (°C),OPC LED temperature (°C),internal box temperature (°C),relative humidity of the measurement (%),span deviation,mass concentration of particles derived from Lorenz-Mie calculation of OPC scattering (μg/m³),mass concentration of particles derived from Lorenz-Mie calculation of OPC scattering (μg/m³),mass concentration of particles derived from Lorenz-Mie calculation of OPC scattering (μg/m³)
DateTimeUTC,F1_M11,P_M11,Q1_M11,Q2_M11,T1_M11,T2_M11,T3_M11,T4_M11,T5_M11,U1_M11,ZSPAN_M11,X2_M11,X0_M11,X1_M11
2023-10-20 23:00:00,SystemResetWarning,0829.7,5.01,000.00,028.0,024.2,000.0,036.3,029.7,8.8,0000.0,0001.79,0008.73,0000.83
2023-10-20 23:01:00,SystemResetWarning,0829.7,5.00,000.00,028.0,024.5,000.0,036.2,029.6,9.0,0000.0,0001.80,0007.73,0000.83
2023-10-20 23:02:00,SystemResetWarning,0829.7,5.00,000.00,027.9,024.9,000.0,036.3,029.5,9.0,0000.0,0001.84,0007.92,0000.83
2023-10-20 23:03:00,SystemResetWarning,0829.7,5.00,000.00,027.9,025.3,000.0,036.3,029.6,9.1,0000.0,0001.88,0008.02,0000.83
2023-10-20 23:04:00,SystemResetWarning,0829.7,5.00,000.00,027.9,025.8,000.0,036.3,029.6,9.1,0000.0,0001.87,0007.99,0000.83
2023-10-20 23:05:00,SystemResetWarning,0829.7,5.00,000.00,028.0,026.2,000.0,036.3,029.8,9.1,0000.0,0001.90,0008.11,0000.83
2023-10-20 23:06:00,SystemResetWarning,0829.7,5.00,000.00,028.0,026.5,000.0,036.3,029.8,9.1,0000.0,0001.99,0008.37,0000.82
2023-10-20 23:07:00,SystemResetWarning,0829.8,4.99,000.00,028.1,026.8,000.0,036.4,029.9,9.1,0000.0,0002.02,0008.97,0000.83
2023-10-20 23:08:00,SystemResetWarning,0829.8,4.99,000.00,028.2,026.7,000.0,036.4,030.0,9.0,0000.0,0001.97,0008.82,0000.83
2023-10-20 23:09:00,SystemResetWarning,0829.7,5.00,000.00,028.1,025.1,000.0,036.3,029.9,9.3,0000.0,0001.98,0009.38,0000.82
2023-10-20 23:10:00,SystemResetWarning,0829.7,5.01,000.00,028.0,024.2,000.0,036.3,029.7,9.3,0000.0,0002.00,0009.43,0000.83
2023-10-20 23:11:00,SystemResetWarning,0829.7,5.01,000.00,028.0,024.5,000.0,036.3,029.6,9.2,0000.0,0002.05,0010.04,0000.82
2023-10-20 23:12:00,SystemResetWarning,0829.7,5.00,000.00,027.9,024.8,000.0,036.3,029.5,9.3,0000.0,0002.02,0010.41,0000.83
2023-10-20 23:13:00,SystemResetWarning,0829.7,5.00,000.00,027.9,025.3,000.0,036.3,029.5,9.0,0000.0,0001.98,0010.18,0000.83
2023-10-20 23:14:00,SystemResetWarning,0829.8,4.99,000.00,027.9,025.7,000.0,036.3,029.6,9.1,0000.0,0001.94,0010.61,0000.84
2023-10-20 23:15:00,SystemResetWarning,0829.8,5.00,000.00,028.0,026.1,000.0,036.3,029.7,9.0,0000.0,0002.08,0011.29,0000.86
2023-10-20 23:16:00,SystemResetWarning,0829.8,4.99,000.00,028.0,026.5,000.0,036.3,029.8,9.0,0000.0,0002.20,0012.41,0000.85
2023-10-20 23:17:00,SystemResetWarning,0829.8,4.98,000.00,028.1,026.8,000.0,036.4,029.9,9.0,0000.0,0002.18,0012.63,0000.86
2023-10-20 23:18:00,SystemResetWarning,0829.8,5.00,000.00,028.1,027.0,000.0,036.4,030.0,9.0,0000.0,0002.17,0012.06,0000.87
2023-10-20 23:19:00,SystemResetWarning,0829.8,5.00,000.00,028.2,026.4,000.0,036.4,030.0,9.1,0000.0,0002.31,0012.03,0000.87
2023-10-20 23:20:00,SystemResetWarning,0829.8,5.00,000.00,028.1,024.7,000.0,036.4,029.8,9.2,0000.0,0002.34,0012.12,0000.88
2023-10-20 23:21:00,SystemResetWarning,0829.8,5.01,000.00,028.0,024.3,000.0,036.3,029.7,9.2,0000.0,0002.34,0011.67,0000.86
2023-10-20 23:22:00,SystemResetWarning,0829.8,5.01,000.00,028.0,024.6,000.0,036.3,029.5,9.1,0000.0,0002.40,0012.13,0000.87
2023-10-20 23:23:00,SystemResetWarning,0829.8,5.00,000.00,027.9,025.0,000.0,036.3,029.5,9.2,0000.0,0002.48,0012.01,0000.88
2023-10-20 23:24:00,SystemResetWarning,0829.8,5.00,000.00,027.9,025.4,000.0,036.3,029.6,9.1,0000.0,0002.64,0012.53,0000.88
2023-10-20 23:25:00,SystemResetWarning,0829.8,4.99,000.00,028.0,025.8,000.0,036.3,029.7,9.2,0000.0,0002.73,0013.28,0000.86
2023-10-20 23:26:00,SystemResetWarning,0829.8,5.00,000.00,028.0,026.2,000.0,036.3,029.8,9.0,0000.0,0002.70,0013.15,0000.85
2023-10-20 23:27:00,SystemResetWarning,0829.9,5.00,000.00,028.1,026.6,000.0,036.3,029.9,9.0,0000.0,0002.58,0012.26,0000.86
2023-10-20 23:28:00,SystemResetWarning,0829.9,4.99,000.00,028.1,026.8,000.0,036.4,030.0,8.8,0000.0,0002.58,0011.62,0000.88
2023-10-20 23:29:00,SystemResetWarning,0829.9,4.99,000.00,028.2,027.0,000.0,036.4,030.0,8.8,0000.0,0002.60,0012.93,0000.88
2023-10-20 23:30:00,SystemResetWarning,0829.9,5.00,000.00,028.2,025.7,000.0,036.4,029.9,8.8,0000.0,0002.58,0013.69,0000.88
2023-10-20 23:31:00,SystemResetWarning,0829.8,5.01,000.00,028.1,024.3,000.0,036.3,029.7,8.8,0000.0,0002.53,0015.01,0000.88
2023-10-20 23:32:00,SystemResetWarning,0829.8,5.01,000.00,028.0,024.3,000.0,036.3,029.6,8.9,0000.0,0002.49,0015.37,0000.88
2023-10-20 23:33:00,SystemResetWarning,0829.8,5.00,000.00,028.0,024.6,000.0,036.3,029.5,9.1,0000.0,0002.41,0014.51,0000.88
2023-10-20 23:34:00,SystemResetWarning,0829.8,5.00,000.00,027.9,025.1,000.0,036.3,029.5,9.1,0000.0,0002.33,0013.93,0000.87
2023-10-20 23:35:00,SystemResetWarning,0829.8,4.99,000.00,027.9,025.5,000.0,036.3,029.6,9.0,0000.0,0002.17,0013.40,0000.86
2023-10-20 23:36:00,SystemResetWarning,0829.9,5.00,000.00,028.0,026.0,000.0,036.3,029.8,8.9,0000.0,0002.10,0012.68,0000.87
2023-10-20 23:37:00,SystemResetWarning,0829.9,4.99,000.00,028.0,026.3,000.0,036.3,029.8,9.0,0000.0,0002.05,0013.04,0000.87
2023-10-20 23:38:00,SystemResetWarning,0829.9,5.00,000.00,028.1,026.6,000.0,036.3,029.9,9.0,0000.0,0002.12,0013.75,0000.87
2023-10-20 23:39:00,SystemResetWarning,0830.0,5.00,000.00,028.2,026.9,000.0,036.4,030.0,9.0,0000.0,0002.12,0014.23,0000.85
2023-10-20 23:40:00,SystemResetWarning,0830.0,5.00,000.00,028.2,026.8,000.0,036.4,030.1,8.9,0000.0,0002.07,0013.48,0000.84
2023-10-20 23:41:00,SystemResetWarning,0829.9,4.99,000.00,028.2,025.2,000.0,036.4,029.9,8.9,0000.0,0002.03,0012.74,0000.84
2023-10-20 23:42:00,SystemResetWarning,0829.9,5.01,000.00,028.1,024.2,000.0,036.3,029.7,9.0,0000.0,0002.03,0010.98,0000.83
2023-10-20 23:43:00,SystemResetWarning,0829.9,5.01,000.00,028.0,024.4,000.0,036.3,029.6,9.1,0000.0,0002.03,0010.89,0000.83
2023-10-20 23:44:00,SystemResetWarning,0829.9,5.00,000.00,027.9,024.7,000.0,036.3,029.5,9.2,0000.0,0002.02,0011.44,0000.82
2023-10-20 23:45:00,SystemResetWarning,0829.9,5.00,000.00,027.9,025.2,000.0,036.3,029.5,9.2,0000.0,0002.06,0011.93,0000.81
2023-10-20 23:46:00,SystemResetWarning,0829.9,5.00,000.00,027.9,025.6,000.0,036.3,029.6,9.2,0000.0,0002.13,0011.88,0000.81
2023-10-20 23:47:00,SystemResetWarning,0830.0,5.00,000.00,028.0,026.0,000.0,036.3,029.7,9.2,0000.0,0002.21,0011.47,0000.81
2023-10-20 23:48:00,SystemResetWarning,0830.0,5.00,000.00,028.0,026.4,000.0,036.3,029.8,9.1,0000.0,0002.26,0011.11,0000.81
2023-10-20 23:49:00,SystemResetWarning,0830.1,5.01,000.00,028.1,026.7,000.0,036.3,029.9,9.1,0000.0,0002.28,0011.09,0000.80
2023-10-20 23:50:00,SystemResetWarning,0830.1,5.00,000.00,028.1,027.0,000.0,036.4,030.0,9.1,0000.0,0002.32,0010.84,0000.80
2023-10-20 23:51:00,SystemResetWarning,0830.0,4.98,000.00,028.2,026.3,000.0,036.4,030.0,9.2,0000.0,0002.45,0011.66,0000.80
2023-10-20 23:52:00,SystemResetWarning,0830.0,5.01,000.00,028.1,024.5,000.0,036.3,029.8,9.2,0000.0,0002.49,0012.48,0000.80
2023-10-20 23:53:00,SystemResetWarning,0829.9,5.01,000.00,028.0,024.1,000.0,036.3,029.7,9.2,0000.0,0002.52,0013.26,0000.80
2023-10-20 23:54:00,SystemResetWarning,0830.0,5.01,000.00,028.0,024.4,000.0,036.3,029.5,9.3,0000.0,0002.64,0013.40,0000.81
2023-10-20 23:55:00,SystemResetWarning,0830.0,5.00,000.00,027.9,024.8,000.0,036.3,029.5,9.3,0000.0,0002.71,0013.26,0000.81
2023-10-20 23:56:00,SystemResetWarning,0830.0,5.00,000.00,027.9,025.3,000.0,036.3,029.5,9.3,0000.0,0002.77,0013.04,0000.82
2023-10-20 23:57:00,SystemResetWarning,0830.0,5.00,000.00,027.9,025.7,000.0,036.3,029.6,9.2,0000.0,0002.77,0014.40,0000.82
2023-10-20 23:58:00,SystemResetWarning,0830.0,5.00,000.00,028.0,026.1,000.0,036.3,029.7,9.2,0000.0,0002.73,0014.80,0000.81
2023-10-20 23:59:00,SystemResetWarning,0830.0,4.99,000.00,028.0,026.5,000.0,036.3,029.8,9.3,0000.0,0002.70,0014.69,0000.80
